星链-5735 (STARLINK-5735 )

导读

STARLINK-5735是美国太空探索技术公司(SpaceX)星链(Starlink)星座的一颗互联网通信卫星,于2023年2月12日由美国使用猎鹰9号火箭发射升空。作为星链二代部署阶段的卫星之一,它运行于近地轨道,采用霍尔效应推进技术,可提供低延迟宽带互联网服务,支撑全球范围内的通信覆盖,扩展星链在民用、应急通信等多场景的服务能力。

基本信息
目录编号:
55603
目录名称:
STARLINK-5735
国际标识:
2023-020AL
轨道中心:
EARTH
卫星名称:
星链-5735
卫星全名:
星链-5735 (STARLINK-5735 )
卫星状态:
在轨 (已飞行1300 天)
发射日期:
2023-02-12 UTC
国别 :
美国 (US)
星等 :
--
轨道信息
数据来源 国际轨道数据
星历时间: 2026-09-04T13:02:33+0800
14小时前
查看轨道信息
半长轴: 6861.203km
偏心率: 0.0001192
轨道倾角: 43.004°
近地点辐角 270.874°
升交点赤经 65.879°
平近点角 89.198°
近地点: 482.248km
远地点: 483.884km
周期: 94.267分钟
每日圈数: 15.275744
详细信息
固有亮度:
5
最大亮度:
2.5
卫星平台:
Starlink v1.5
覆盖范围:
全球
运营商:
太空探索技术公司
运营商所在国:
美国
制造商(研发单位):
太空探索技术公司
制造商所在国:
美国
使用方式:
暂无
卫星简介
星链(Starlink)计划是由太空探索技术公司(SpaceX)提出的一个巨型低轨卫星互联网星座项目,计划在2019年至2024年间在太空搭建由约1.2万颗卫星组成的“星链”网络,其中1584颗将部署在地球上空550千米处的近地轨道,并从2020年开始工作。该卫星仍在工作。
2D轨道图
3D轨道图
轨道高度分析图
轨道倾角分析图
轨道综合分析图
查看轨道综合分析图
交会数据列表
事件ID 空间交会对象 最接近时刻(TCA) 交会距离 交会风险概率(CRP) 交会风险指数(CRI) 操作
CDM_260907-053305-560306-750121
2026-09-07T
05:33:24+0000
0.199 km
中距离
5.005979E-4 高风险 0.89
CDM_260906-131405-560306-379622
2026-09-06T
13:14:28+0000
0.324 km
远距离
2.776345E-4 高风险 0.84
CDM_260906-232605-560306-379621
2026-09-06T
23:26:28+0000
1.040 km
极远距离
1.12048E-5 中风险 0.56
CDM_260907-010005-560306-379621
2026-09-07T
01:00:38+0000
1.545 km
极远距离
3.00046E-6 低风险 0.45
CDM_260905-150705-560306-321623
BOTSAT-1 (63216)
2026-09-05T
15:07:56+0000
1.889 km
极远距离
2.733055E-6 低风险 0.44
CDM_260906-144805-560306-379622
2026-09-06T
14:48:38+0000
1.736 km
极远距离
2.134297E-6 低风险 0.42
CDM_260906-114005-560306-379621
2026-09-06T
11:40:19+0000
2.124 km
极远距离
1.291333E-6 低风险 0.37
CDM_260906-215205-560306-379621
2026-09-06T
21:52:19+0000
2.939 km
极远距离
7.573959E-7 极低风险 0.33